Location: El Conde
(10.2895°N, 67.2409°W)
Time: 19:42:26
(UTC+00:00)

Cosmos 1812 - Pass Details

Date: 19 May 2024
Orbit: 469 x 471 km, 82.5° (Epoch: 12 June)

Event Time Altitude Azimuth Distance (km) Brightness Sun altitude
Rises 23:03:53 0° 161° (SSE) 2,508 5.8 -5.3°
Reaches altitude 10° 23:06:16 10° 146° (SE) 1,632 4.7 -5.9°
Maximum altitude 23:09:08 23° 92° (E) 1,052 3.7 -6.5°
Drops below altitude 10° 23:12:00 10° 39° (NE) 1,634 5.1 -7.2°
Sets 23:14:22 0° 24° (NNE) 2,511 6.2 -7.7°
